Weather History for Huron, SD

Change the Weather History Date:

Sunday, May 25, 2014

  Actual Average Record
Temperature  
Mean Temperature 71 °F 61 °F  
Max Temperature 83 °F 73 °F 93 °F (1967)
Min Temperature 58 °F 49 °F 32 °F (1893)
Degree Days  
Heating Degree Days 0 5  
Month to date heating degree days 274 216  
Since 1 July heating degree days 8287 7594  
Cooling Degree Days 6 1  
Month to date cooling degree days 19 22  
Year to date cooling degree days 19 26  
Growing Degree Days 20 (Base 50)    
Moisture  
Dew Point 56 °F    
Average Humidity 62    
Maximum Humidity 80    
Minimum Humidity 43    
Precipitation  
Precipitation 0.00 in 0.11 in 1.98 in (1907)
Month to date precipitation 1.24 2.45  
Year to date precipitation 3.68 7.32  
Snow  
Snow 0.00 in 0.00 in 0.00 in ()
Month to date snowfall 0.0 0.1  
Since 1 July snowfall 28.6 44.0  
Snow Depth 0.00 in    
Sea Level Pressure  
Sea Level Pressure 29.89 in    
Wind  
Wind Speed 9 mph (South)    
Max Wind Speed 15 mph    
Max Gust Speed 20 mph    
Visibility 10 miles    
Events      
T = Trace of Precipitation, MM = Missing Value Source: NWS Daily Summary

Daily Weather History Graph

Daily Weather History Graph

Search for Another Location

Airport:

Trip Planner

Search our weather history database for the weather conditions in past years. The results will help you decide how hot, cold, wet, or windy it might be!

Date:

Astronomy

May. 25, 2014 Rise Set
Actual Time 5:56 AM CDT 9:04 PM CDT
Civil Twilight 5:21 AM CDT 9:39 PM CDT
Nautical Twilight 4:36 AM CDT 10:24 PM CDT
Astronomical Twilight 3:42 AM CDT 11:18 PM CDT
Moon 4:09 AM CDT (5/25) 5:59 PM CDT (5/25)
Length of Visible Light 16h 17m
Length of Day
15h 07m
Waning Crescent, 10% of the Moon is Illuminated
May 25
Waning Crescent
May 28
New
Jun 5
First Quarter
Jun 12
Full
Jun 19
Last Quarter

Hourly Weather History & Observations

Time (CDT) Temp. Heat Index Dew Point Humidity Pressure Visibility Wind Dir Wind Speed Gust Speed Precip Events Conditions
12:55 AM 60.8 °F - 44.6 °F 55% 29.96 in 10.0 mi SSE 6.9 mph - N/A   Clear
1:55 AM 61.0 °F - 44.1 °F 54% 29.94 in 10.0 mi SSE 8.1 mph - N/A   Clear
2:55 AM 60.1 °F - 43.0 °F 53% 29.93 in 10.0 mi SSE 9.2 mph - N/A   Clear
3:55 AM 57.9 °F - 45.0 °F 62% 29.93 in 10.0 mi SSE 8.1 mph - N/A   Clear
4:55 AM 59.0 °F - 48.0 °F 67% 29.91 in 10.0 mi SSE 9.2 mph - N/A   Clear
5:55 AM 59.0 °F - 52.0 °F 78% 29.91 in 10.0 mi SSE 10.4 mph - N/A   Clear
6:55 AM 59.0 °F - 54.0 °F 83% 29.92 in 10.0 mi SSE 10.4 mph - N/A   Clear
7:55 AM 63.0 °F - 55.9 °F 78% 29.91 in 10.0 mi South 9.2 mph - N/A   Clear
8:55 AM 66.0 °F - 59.0 °F 78% 29.92 in 10.0 mi South 10.4 mph - N/A   Clear
9:55 AM 69.8 °F - 60.8 °F 73% 29.94 in 10.0 mi South 9.2 mph - N/A   Clear
10:55 AM 73.0 °F - 61.0 °F 66% 29.91 in 10.0 mi SSE 9.2 mph - N/A   Clear
11:55 AM 73.9 °F - 61.0 °F 64% 29.91 in 10.0 mi South 13.8 mph - N/A   Mostly Cloudy
12:55 PM 73.9 °F - 61.0 °F 64% 29.91 in 10.0 mi SSW 15.0 mph 19.6 mph N/A   Partly Cloudy
1:55 PM 77.0 °F - 61.0 °F 58% 29.90 in 10.0 mi South 12.7 mph - N/A   Scattered Clouds
2:55 PM 79.0 °F - 60.1 °F 52% 29.87 in 10.0 mi SSW 10.4 mph - N/A   Mostly Cloudy
3:55 PM 80.1 °F 80.7 °F 59.0 °F 48% 29.85 in 10.0 mi SSW 8.1 mph 18.4 mph N/A   Mostly Cloudy
4:55 PM 80.1 °F 80.7 °F 59.0 °F 48% 29.81 in 10.0 mi SSW 11.5 mph - N/A   Partly Cloudy
5:55 PM 82.0 °F 82.0 °F 57.9 °F 44% 29.81 in 10.0 mi South 9.2 mph - N/A   Clear
6:55 PM 81.0 °F 81.1 °F 57.9 °F 45% 29.81 in 10.0 mi SSW 6.9 mph - N/A   Mostly Cloudy
7:55 PM 79.0 °F - 59.0 °F 50% 29.81 in 10.0 mi WSW 5.8 mph - N/A   Clear
8:55 PM 77.0 °F - 59.0 °F 54% 29.82 in 10.0 mi SSW 4.6 mph - N/A   Clear
9:55 PM 73.9 °F - 61.0 °F 64% 29.84 in 10.0 mi SW 4.6 mph - N/A   Clear
10:55 PM 73.9 °F - 59.0 °F 59% 29.86 in 10.0 mi South 5.8 mph - N/A   Scattered Clouds
11:55 PM 72.0 °F - 61.0 °F 68% 29.85 in 10.0 mi SSW 8.1 mph - N/A   Partly Cloudy